Regional Weather Roundup
Issued by NWS

Home | Current Version | Previous Version | Text Only | Print | Product List | Glossary On
Versions: 1 2 3 4 5 6 7 8 9 10 11 12 13 14 15 16 17 18 19 20 21 22 23 24 25 26 27 28 29 30 31 32 33 34 35 36 37 38 39 40 41 42 43 44
000
ASUS45 KBOU 260207
RWRCO

WEATHER ROUNDUP FOR COLORADO
NATIONAL WEATHER SERVICE DENVER/BOULDER CO
700 PM MST THU DEC 25 2014

NOTE: "FAIR" INDICATES FEW OR NO CLOUDS BELOW 12000 FEET WITH NO
SIGNIFICANT WEATHER AND/OR OBSTRUCTIONS TO VISIBILITY.

COZ001>005-013-030-031-260300-
...NORTHWEST COLORADO...

CITY           SKY/WX    TMP DP  RH WIND       PRES   REMARKS
CRAIG          CLOUDY    26  23  88 SW9       29.60R WCI  17
HAYDEN         CLOUDY    21  19  93 CALM      29.57S
MEEKER         FLURRIES  25  22  88 CALM      29.58R
MOUNT WERNER   NOT AVBL
STEAMBOAT SPGS CLOUDY    27  26  96 CALM      29.56R VSB 1
WALDEN         CLOUDY    18  14  86 NE18      29.57R WCI   2
$$

COZ006>008-011-260300-
...WEST CENTRAL VALLEYS...

CITY           SKY/WX    TMP DP  RH WIND       PRES   REMARKS
GRAND JUNCTION CLOUDY    28  26  92 N13       29.63R WCI  17
MONTROSE       MOCLDY    29  27  92 NE8       29.63R WCI  21
EAGLE          CLOUDY    28  21  74 E3        29.59R
RIFLE          LGT SNOW  30  28  92 W12       29.60R VSB 3/4 WCI  20
DELTA          MOCLDY    33  30  88 SW8       29.62R WCI  26
NUCLA          LGT SNOW  28  27  93 SW6       29.67R VSB 1   WCI  22
$$

COZ017>023-064>068-260300-
...SOUTHWEST COLORADO...

CITY           SKY/WX    TMP DP  RH WIND       PRES   REMARKS
DURANGO        CLOUDY    29  25  85 W3        29.64R
CORTEZ         PTCLDY    29  19  66 W5        29.64R WCI  24
PAGOSA SPRINGS LGT SNOW  27  26  97 SW7       29.63R VSB 1   WCI  20
TELLURIDE      LGT SNOW  21  16  79 CALM      29.58S
WOLF CREEK PAS CLOUDY    10   9  92 MISG      29.56R
$$

COZ009-010-012-014-032>034-037-058>063-260300-
...CENTRAL COLORADO...

CITY           SKY/WX    TMP DP  RH WIND       PRES   REMARKS
ASPEN          LGT SNOW  26  23  88 SE8       29.55R FOG     WCI  18
BUENA VISTA    MOCLDY    27  14  57 E5        29.58R WCI  22
COPPER MTN     CLOUDY    18   5  57 SE8       29.53S WCI   7
BERTHOUD PASS  SNOW       3  -2  78 MISG      29.56S VSB 1/2
COTTONWOOD PAS CLOUDY    27   9  46 W5        29.57R WCI  21
GUNNISON       CLOUDY    14  10  85 CALM      29.62R
KREMMLING      MOCLDY    21  18  86 CALM      29.57R
LEADVILLE      CLOUDY    15   6  67 S7        29.53R WCI   5
MONARCH PASS   CLOUDY    12   9  85 MISG      29.65R
SALIDA         CLOUDY    32  15  49 SE3       29.67R
SUNLIGHT       LGT SNOW  19  16  86 MISG      29.55S VSB 3/4
WILKERSON PASS SNOW      18  14  86 S6        29.62R VSB 1/4 WCI   9
$$

COZ069>075-260300-
...SAN LUIS VALLEY/SANGRE DE CRISTO MOUNTAINS...

CITY           SKY/WX    TMP DP  RH WIND       PRES   REMARKS
ALAMOSA        LGT SNOW  28  23  81 S9        29.62R WCI  19
LA VETA PASS   NOT AVBL
SAGUACHE       MOCLDY    14   9  79 SE5       29.62R WCI   6
$$

COZ035-036-038>040-260300-
...NORTHERN COLORADO FRONT RANGE...

CITY           SKY/WX    TMP DP  RH WIND       PRES   REMARKS
DENVER INTL AP LGT SNOW  24  23  96 N14       29.75R FOG     WCI  12
DMNS CITY PARK   N/A     25  24  96 N8G17     29.77R WCI  16
AURORA         LGT SNOW  24  24  99 N15G23    29.75R FOG     WCI  11
FRONT RANGE AP NOT AVBL
ERIE MUNI ARPT LGT SNOW  26  25  97 N13       29.78R WCI  15
BOULDER MUN AP LGT SNOW  27  27 100 N8        29.78R WCI  18
CENTENNIAL     LGT SNOW  23  21  92 N17       29.73R VSB 3/4 WCI   9
BROOMFIELD     NOT AVBL
FORT COLLINS   CLOUDY    25  21  86 N17       29.80R WCI  11
LONGMONT       LGT SNOW  28  26  91 N5        29.81R VSB 1   WCI  23
$$

COZ041-046-047-076>085-087-088-260300-
...PIKES PEAK/PALMER DIVIDE AND SOUTHERN FOOTHILLS...

CITY           SKY/WX    TMP DP  RH WIND       PRES   REMARKS
COLO. SPRINGS  PTCLDY    29  24  82 NE15      29.63R WCI  18
A. F. ACADEMY  MIX PCPN  30  25  80 N13       29.65R WCI  20
ELLICOTT       NOT AVBL
FALCON         CLOUDY    27  25  91 N12G22    29.64R WCI  17
FORT CARSON    PTCLDY    30  24  80 N16       29.61R WCI  18
LIMON          CLOUDY    27  25  92 N14       29.68R WCI  16
MONUMENT HILL  SNOW      23  23 100 N16       29.65R VSB 1/4 WCI  10
TRINIDAD       CLEAR     37  23  56 SW13      29.61R
$$

COZ042>045-048>051-090-091-260300-
...NORTHEAST COLORADO...

CITY           SKY/WX    TMP DP  RH WIND       PRES   REMARKS
GREELEY ARPT   CLOUDY    27  19  74 N9        29.78R WCI  17
AKRON          LGT SNOW  25  24  96 NE22G30   29.70R FOG     WCI  10
BURLINGTON     CLOUDY    30  24  78 N18       29.67R WCI  18
WRAY           CLOUDY    31  28  90 N20G28    29.71R WCI  18
STERLING       LGT SNOW  30  28  93 NE22G30   29.73R WCI  17
HOLYOKE        FLURRIES  32  28  86 NE17G28   29.73R WCI  21
FORT MORGAN    LGT SNOW  26  23  90 NE25      29.76R WCI  10
$$

COZ086-089-092>099-260300-
...SOUTHEAST COLORADO...

CITY           SKY/WX    TMP DP  RH WIND       PRES   REMARKS
PUEBLO         CLEAR     33  25  72 NE13      29.63R WCI  24
LA JUNTA       CLEAR     36  24  62 N15G23    29.62R
LAMAR          PTCLDY    36  25  64 NE13      29.61R
SPRINGFIELD      N/A     38  19  46 SW10      29.60R
$$


USA.gov is the U.S. government's official web portal to all federal, state and local government web resources and services.